星链-37652(STARLINK-37652)

导读

STARLINK-37652(NORAD编号69354)是美国太空探索技术公司(SpaceX)星链低轨通信星座的组成卫星,属于星链V2 Mini优化版批次,该批次卫星普遍支持更高传输速率,部分同代卫星已具备直连手机功能,可提供文本、语音及基础宽带网络服务。 作为星链全球组网的节点之一,该卫星运行于近地轨道,轨道倾角约53度,轨道高度约550公里,在轨周期约95分钟,截至2026年6月处于正常运营状态,与其他在轨星链卫星共同为全球偏远地区、海洋作业等场景提供低延迟通信覆盖,当前星链总在轨运营卫星已超1万颗,全球订阅用户规模突破1100万。

Basic Information
目录编号:
69354
目录名称:
STARLINK-37652
国际标识:
2026-123B
轨道中心:
EARTH
卫星名称:
星链-37652
卫星全名:
星链-37652(STARLINK-37652)
卫星状态:
在轨 (已飞行101 天)
发射日期:
2026-06-04 UTC
国别 :
美国 (US)
星等 :
--
This satellite is enrolled in the Space Conjunction Data Service (SCDS) and the current flight risk assessment level is: No High Risk
Orbit Information
数据来源 国际轨道数据
星历时间: 2026-09-13T09:18:39+0800
7小时前
查看轨道信息
半长轴: 6837.84km
偏心率: 0.0000974
轨道倾角: 53.158°
近地点辐角 86.378°
升交点赤经 177.487°
平近点角 273.734°
近地点: 459.036km
远地点: 460.37km
周期: 93.786分钟
每日圈数: 15.354101
Detailed Information
固有亮度:
5
最大亮度:
2.5
卫星平台:
Starlink V1.0
覆盖范围:
全球
运营商:
太空探索技术公司
运营商所在国:
美国
制造商(研发单位):
太空探索技术公司
制造商所在国:
美国
使用方式:
暂无
Satellite Introduction
Starlink 计划是 SpaceX 推出的全球卫星互联网项目,通过发射低轨道卫星,为全球尤其是偏远地区提供高速、低延迟的互联网服务。自 2019 年起,Starlink 已部署数千颗卫星,旨在缩小全球数字鸿沟,推动互联网普及。该项目还为军事、航空等行业提供通信支持,带来广泛经济效益。
2D Orbit Map
3D Orbit Map
Orbit Altitude Analysis Chart
Orbit Inclination Analysis Chart
Orbit Comprehensive Analysis Chart
View Comprehensive Chart
Conjunction Data List
Event ID Objects TCA Miss Dist (km) Collision Risk Probability Collision Risk Index (CRI) Action
CDM_260910-122006-345606-935421
2026-09-10T
12:20:11+0000
2.452 km
极远距离
1.61697E-6 低风险 0.39
CDM_260910-164106-834606-935422
2026-09-10T
16:41:45+0000
1.560 km
极远距离
1.400913E-6 低风险 0.38
CDM_260915-015406-786006-935421
2026-09-15T
01:54:49+0000
2.711 km
极远距离
1.282989E-6 低风险 0.37
CDM_260914-194306-295806-935421
2026-09-14T
19:43:19+0000
2.743 km
极远距离
1.163921E-6 低风险 0.36
CDM_260914-040606-542206-935421
2026-09-14T
04:06:31+0000
2.755 km
极远距离
1.138032E-6 低风险 0.36
CDM_260915-034106-244506-935421
2026-09-15T
03:41:42+0000
2.323 km
极远距离
4.017531E-7 极低风险 0.27
Miss Distance Evolution Trend with All Objects
Collision Probability Evolution Trend with All Objects